• In Hungary
  • List of Countries
  • For 7 days
  • Water Temperature
  • Satellite Maps
  • Weather Map
  • News
  • Weather Widgets
  • user-avatar
    Login

    Hourly Weather Glusk

    Today, 19 July, Thursday

    Time Temperature Precipitation Wind Pressure Humidity
    00:00 +21°C° 0.1 mm 4 mps 750 mmHg 94%
    01:00 +20°C° 0 mm 3 mps 750 mmHg 96%
    02:00 +20°C° 0.5 mm 3 mps 750 mmHg 96%
    03:00 +19°C° 0.5 mm 3 mps 750 mmHg 96%
    04:00 +19°C° 0.5 mm 4 mps 750 mmHg 96%
    05:00 +20°C° 0.3 mm 4 mps 750 mmHg 94%
    06:00 +21°C° 0.3 mm 4 mps 750 mmHg 91%
    07:00 +21°C° 0.3 mm 3 mps 750 mmHg 89%
    08:00 +23°C° 0.6 mm 4 mps 750 mmHg 84%
    09:00 +25°C° 0.6 mm 4 mps 750 mmHg 79%
    10:00 +26°C° 0.6 mm 4 mps 750 mmHg 75%
    11:00 +27°C° 0.6 mm 4 mps 750 mmHg 69%
    12:00 +28°C° 0.6 mm 3 mps 750 mmHg 63%
    13:00 +29°C° 0.6 mm 3 mps 750 mmHg 58%
    14:00 +29°C° 0.7 mm 4 mps 750 mmHg 60%
    15:00 +28°C° 0.7 mm 4 mps 750 mmHg 63%
    16:00 +28°C° 0.7 mm 5 mps 750 mmHg 65%
    17:00 +27°C° 0.4 mm 5 mps 750 mmHg 70%
    18:00 +25°C° 0.4 mm 5 mps 750 mmHg 74%
    19:00 +23°C° 0.4 mm 5 mps 750 mmHg 79%
    20:00 +22°C° 0.2 mm 4 mps 751 mmHg 82%
    21:00 +21°C° 0.2 mm 4 mps 751 mmHg 85%
    22:00 +20°C° 0.2 mm 4 mps 751 mmHg 88%
    23:00 +20°C° 0 mm 4 mps 751 mmHg 90%

    Tomorrow, 20 July, Friday

    Time Temperature Precipitation Wind Pressure Humidity
    00:00 +19°C° 0 mm 4 mps 751 mmHg 91%
    01:00 +19°C° 0 mm 4 mps 751 mmHg 93%
    02:00 +19°C° 0 mm 4 mps 751 mmHg 93%
    03:00 +18°C° 0 mm 4 mps 751 mmHg 94%
    04:00 +18°C° 0 mm 4 mps 751 mmHg 95%
    05:00 +19°C° 0 mm 4 mps 752 mmHg 91%
    06:00 +20°C° 0 mm 4 mps 752 mmHg 88%
    07:00 +21°C° 0 mm 4 mps 752 mmHg 84%
    08:00 +22°C° 0.2 mm 5 mps 752 mmHg 79%
    09:00 +25°C° 0.2 mm 5 mps 752 mmHg 73%
    10:00 +26°C° 0.2 mm 5 mps 752 mmHg 68%
    11:00 +26°C° 0.2 mm 5 mps 752 mmHg 65%
    12:00 +27°C° 0.2 mm 6 mps 751 mmHg 62%
    13:00 +28°C° 0.2 mm 6 mps 751 mmHg 59%
    14:00 +28°C° 0.1 mm 6 mps 751 mmHg 59%
    15:00 +28°C° 0.1 mm 6 mps 751 mmHg 60%
    16:00 +27°C° 0.1 mm 6 mps 751 mmHg 61%
    17:00 +26°C° 0.1 mm 5 mps 751 mmHg 67%
    18:00 +25°C° 0.1 mm 4 mps 751 mmHg 73%
    19:00 +24°C° 0.1 mm 3 mps 751 mmHg 79%
    20:00 +21°C° 0 mm 3 mps 752 mmHg 82%
    21:00 +20°C° 0 mm 3 mps 752 mmHg 86%
    22:00 +19°C° 0 mm 3 mps 752 mmHg 90%
    23:00 +18°C° 0 mm 3 mps 752 mmHg 90%

    Day after tomorrow, 21 July, Saturday

    Time Temperature Precipitation Wind Pressure Humidity
    00:00 +18°C° 0 mm 3 mps 752 mmHg 90%
    01:00 +17°C° 0 mm 3 mps 752 mmHg 91%
    02:00 +16°C° 0 mm 2 mps 752 mmHg 90%
    03:00 +16°C° 0 mm 2 mps 752 mmHg 89%
    04:00 +15°C° 0 mm 2 mps 752 mmHg 88%
    05:00 +17°C° 0 mm 2 mps 752 mmHg 82%
    06:00 +18°C° 0 mm 3 mps 753 mmHg 76%
    07:00 +19°C° 0 mm 3 mps 753 mmHg 69%
    08:00 +20°C° 0 mm 3 mps 753 mmHg 64%
    09:00 +22°C° 0 mm 4 mps 753 mmHg 58%
    10:00 +23°C° 0 mm 4 mps 752 mmHg 53%
    11:00 +25°C° 0 mm 4 mps 752 mmHg 51%
    12:00 +25°C° 0 mm 4 mps 752 mmHg 50%
    13:00 +26°C° 0 mm 4 mps 752 mmHg 48%
    14:00 +26°C° 0 mm 4 mps 752 mmHg 49%
    15:00 +26°C° 0 mm 4 mps 751 mmHg 49%
    16:00 +26°C° 0 mm 3 mps 751 mmHg 50%
    17:00 +25°C° 0 mm 3 mps 751 mmHg 55%
    18:00 +24°C° 0 mm 2 mps 751 mmHg 60%
    19:00 +23°C° 0 mm 2 mps 751 mmHg 65%
    20:00 +21°C° 0 mm 2 mps 751 mmHg 67%
    21:00 +19°C° 0 mm 2 mps 752 mmHg 68%
    22:00 +18°C° 0 mm 2 mps 752 mmHg 70%
    23:00 +18°C° 0 mm 2 mps 752 mmHg 73%

    22 July, Sunday

    Time Temperature Precipitation Wind Pressure Humidity
    00:00 +17°C° 0 mm 2 mps 752 mmHg 76%
    01:00 +17°C° 0 mm 2 mps 752 mmHg 79%
    02:00 +18°C° 0 mm 1 mps 752 mmHg 82%
    03:00 +16°C° 0 mm 1 mps 751 mmHg 85%
    04:00 +16°C° 0 mm 1 mps 751 mmHg 87%
    05:00 +18°C° 0 mm 1 mps 752 mmHg 83%
    06:00 +20°C° 0 mm 1 mps 752 mmHg 79%
    07:00 +21°C° 0 mm 1 mps 752 mmHg 75%
    08:00 +23°C° 0 mm 2 mps 752 mmHg 70%
    09:00 +24°C° 0 mm 2 mps 752 mmHg 64%
    10:00 +26°C° 0 mm 2 mps 751 mmHg 59%
    11:00 +26°C° 0.1 mm 2 mps 751 mmHg 56%
    12:00 +27°C° 0.1 mm 2 mps 751 mmHg 54%
    13:00 +28°C° 0.1 mm 2 mps 751 mmHg 51%
    14:00 +28°C° 0.1 mm 2 mps 751 mmHg 53%
    15:00 +27°C° 0.1 mm 3 mps 750 mmHg 54%
    16:00 +27°C° 0.1 mm 3 mps 750 mmHg 56%
    17:00 +26°C° 0.1 mm 3 mps 750 mmHg 61%
    18:00 +25°C° 0.1 mm 2 mps 750 mmHg 66%
    19:00 +24°C° 0.1 mm 2 mps 751 mmHg 71%
    20:00 +23°C° 0 mm 2 mps 751 mmHg 74%
    21:00 +21°C° 0 mm 2 mps 751 mmHg 77%
    22:00 +19°C° 0 mm 2 mps 751 mmHg 80%
    23:00 +19°C° 0 mm 2 mps 751 mmHg 82%

    23 July, Monday

    Time Temperature Precipitation Wind Pressure Humidity
    00:00 +18°C° 0 mm 2 mps 751 mmHg 84%
    01:00 +18°C° 0 mm 2 mps 752 mmHg 85%
    02:00 +17°C° 0 mm 2 mps 752 mmHg 86%
    03:00 +17°C° 0 mm 2 mps 752 mmHg 87%
    04:00 +16°C° 0 mm 2 mps 752 mmHg 87%
    05:00 +18°C° 0 mm 2 mps 752 mmHg 81%
    06:00 +19°C° 0 mm 2 mps 752 mmHg 75%
    07:00 +21°C° 0 mm 2 mps 752 mmHg 69%
    08:00 +23°C° 0 mm 2 mps 752 mmHg 65%
    09:00 +24°C° 0 mm 3 mps 752 mmHg 60%
    10:00 +26°C° 0 mm 3 mps 752 mmHg 56%
    11:00 +26°C° 0.1 mm 3 mps 752 mmHg 56%
    12:00 +27°C° 0.1 mm 4 mps 752 mmHg 56%
    13:00 +27°C° 0.1 mm 4 mps 752 mmHg 56%
    14:00 +27°C° 0.1 mm 4 mps 752 mmHg 56%
    15:00 +27°C° 0.1 mm 4 mps 752 mmHg 56%
    16:00 +27°C° 0.1 mm 5 mps 752 mmHg 56%
    17:00 +26°C° 0 mm 4 mps 752 mmHg 62%
    18:00 +23°C° 0 mm 4 mps 752 mmHg 67%
    19:00 +22°C° 0 mm 3 mps 752 mmHg 73%
    20:00 +21°C° 0 mm 3 mps 753 mmHg 77%
    21:00 +19°C° 0 mm 3 mps 753 mmHg 81%
    22:00 +18°C° 0 mm 2 mps 753 mmHg 85%
    23:00 +18°C° 0 mm 2 mps 753 mmHg 88%

    24 July, Tuesday

    Time Temperature Precipitation Wind Pressure Humidity
    00:00 +17°C° 0 mm 2 mps 753 mmHg 90%
    01:00 +17°C° 0 mm 2 mps 753 mmHg 92%
    02:00 +16°C° 0 mm 2 mps 753 mmHg 92%
    03:00 +16°C° 0 mm 1 mps 754 mmHg 93%
    04:00 +16°C° 0 mm 1 mps 754 mmHg 93%
    05:00 +17°C° 0 mm 2 mps 754 mmHg 88%
    06:00 +18°C° 0 mm 2 mps 754 mmHg 84%
    07:00 +20°C° 0 mm 2 mps 754 mmHg 79%
    08:00 +21°C° 0 mm 2 mps 754 mmHg 73%
    09:00 +24°C° 0 mm 3 mps 754 mmHg 68%
    10:00 +25°C° 0 mm 3 mps 754 mmHg 63%
    11:00 +26°C° 0.1 mm 3 mps 753 mmHg 60%
    12:00 +27°C° 0.1 mm 3 mps 753 mmHg 57%
    13:00 +28°C° 0.1 mm 3 mps 753 mmHg 54%
    14:00 +28°C° 0.2 mm 3 mps 753 mmHg 55%
    15:00 +28°C° 0.2 mm 3 mps 753 mmHg 56%
    16:00 +28°C° 0.2 mm 3 mps 753 mmHg 58%
    17:00 +27°C° 0.1 mm 3 mps 753 mmHg 62%
    18:00 +26°C° 0.1 mm 2 mps 753 mmHg 67%
    19:00 +25°C° 0.1 mm 2 mps 753 mmHg 72%
    20:00 +23°C° 0 mm 2 mps 753 mmHg 77%
    21:00 +21°C° 0 mm 2 mps 753 mmHg 81%
    22:00 +20°C° 0 mm 2 mps 753 mmHg 85%
    23:00 +19°C° 0 mm 2 mps 753 mmHg 87%
    Show more